Tracking 19644 objects as of 26-Apr-2019
HD Live streaming from Space Station
objects crossing your sky now

THORAD AGENA D DEB

Track THORAD AGENA D DEB now!
10-day predictions


NORAD ID: 4734
Int'l Code: 1970-025CH
Perigee: 897.3 km
Apogee: 1,019.4 km
Inclination: 100.2 °
Period: 104.1 minutes
Semi major axis: 7329 km
RCS: 0.0835 m2 (small)
Launch date: April 8, 1970
Source: United States (US)
Launch site: AIR FORCE WESTERN TEST RANGE (AFWTR)

Note: This is SATELLITE DEBRIS
aabbcc
Your satellite tracking list
Your tracking list is empty




NASA's NSSDC Master Catalog

Two Line Element Set (TLE):
1  4734U 70025CH  19115.54614823 +.00000105 +00000-0 +13821-3 0  9996
2  4734 100.1762 317.6698 0083238 289.2243 069.9916 13.83579941461428
Source of the keplerian elements: AFSPC